Weather History for Jefferson City, MO

Change the Weather History Date:

Tuesday, December 11, 2012

  Actual Average Record
Temperature  
Mean Temperature 30 °F -  
Max Temperature 43 °F 45 °F 79 °F (1949)
Min Temperature 17 °F 22 °F 0 °F (1962)
Degree Days  
Heating Degree Days 35    
Moisture  
Dew Point 18 °F    
Average Humidity 66    
Maximum Humidity 88    
Minimum Humidity 38    
Precipitation  
Precipitation 0.00 in - - ()
Sea Level Pressure  
Sea Level Pressure 30.12 in    
Wind  
Wind Speed 2 mph (South)    
Max Wind Speed 6 mph    
Max Gust Speed -    
Visibility 10 miles    
Events      
Averages and records for this station are not official NWS values.
T = Trace of Precipitation, MM = Missing Value Source: NWS Daily Summary

Daily Weather History Graph

Daily Weather History Graph

Search for Another Location

Airport:

Trip Planner

Search our weather history database for the weather conditions in past years. The results will help you decide how hot, cold, wet, or windy it might be!

Date:

Astronomy

Dec. 11, 2012 Rise Set
Actual Time 7:16 AM CST 4:47 PM CST
Civil Twilight 6:46 AM CST 5:17 PM CST
Nautical Twilight 6:13 AM CST 5:50 PM CST
Astronomical Twilight 5:41 AM CST 6:22 PM CST
Moon 5:12 AM CST (12/11) 3:26 PM CST (12/11)
Length of Visible Light 10h 30m
Length of Day
9h 31m
Waning Crescent, 4% of the Moon is Illuminated
Dec 11
Waning Crescent
Dec 13
New
Dec 19
First Quarter
Dec 28
Full
Jan 4
Last Quarter

Hourly Weather History & Observations

Time (CST) Temp. Windchill Dew Point Humidity Pressure Visibility Wind Dir Wind Speed Gust Speed Precip Events Conditions
12:53 AM 17.1 °F - 14.0 °F 88% 30.09 in 10.0 mi Calm Calm - N/A   Clear
1:53 AM 19.0 °F 13.9 °F 15.1 °F 85% 30.08 in 10.0 mi East 3.5 mph - N/A   Clear
2:53 AM 19.0 °F - 15.1 °F 85% 30.08 in 9.0 mi Calm Calm - N/A   Clear
3:53 AM 19.9 °F - 16.0 °F 85% 30.08 in 10.0 mi Calm Calm - N/A   Clear
4:53 AM 19.9 °F 13.4 °F 16.0 °F 85% 30.08 in 10.0 mi ESE 4.6 mph - N/A   Clear
6:53 AM 21.0 °F 16.2 °F 15.1 °F 78% 30.09 in 10.0 mi ESE 3.5 mph - N/A   Clear
7:53 AM 21.0 °F - 16.0 °F 81% 30.10 in 10.0 mi Calm Calm - N/A   Clear
8:53 AM 25.0 °F 19.3 °F 18.0 °F 75% 30.11 in 10.0 mi SSW 4.6 mph - N/A   Clear
9:53 AM 30.0 °F 24.1 °F 18.0 °F 61% 30.13 in 10.0 mi WSW 5.8 mph - N/A   Clear
10:53 AM 33.1 °F 28.7 °F 18.0 °F 54% 30.13 in 10.0 mi SW 4.6 mph - N/A   Clear
11:53 AM 37.0 °F 32.4 °F 17.1 °F 44% 30.12 in 10.0 mi WSW 5.8 mph - N/A   Clear
12:53 PM 39.9 °F - 18.0 °F 41% 30.10 in 10.0 mi Calm Calm - N/A   Clear
1:53 PM 42.1 °F - 18.0 °F 38% 30.09 in 10.0 mi Calm Calm - N/A   Clear
2:53 PM 43.0 °F - 19.0 °F 38% 30.08 in 10.0 mi Calm Calm - N/A   Clear
3:53 PM 43.0 °F 41.3 °F 19.9 °F 40% 30.09 in 10.0 mi SSW 3.5 mph - N/A   Clear
4:53 PM 39.9 °F 37.8 °F 19.0 °F 43% 30.09 in 10.0 mi South 3.5 mph - N/A   Clear
5:53 PM 36.0 °F - 19.9 °F 52% 30.12 in 10.0 mi Calm Calm - N/A   Clear
6:53 PM 30.9 °F - 21.9 °F 69% 30.14 in 10.0 mi Calm Calm - N/A   Clear
7:53 PM 28.9 °F - 21.0 °F 72% 30.16 in 10.0 mi Calm Calm - N/A   Clear
8:53 PM 27.0 °F - 19.9 °F 75% 30.17 in 10.0 mi Calm Calm - N/A   Clear
9:53 PM 27.0 °F - 21.0 °F 78% 30.17 in 10.0 mi Calm Calm - N/A   Clear
10:53 PM 25.0 °F - 19.0 °F 78% 30.19 in 10.0 mi Calm Calm - N/A   Clear
11:53 PM 25.0 °F - 19.9 °F 81% 30.20 in 10.0 mi Calm Calm - N/A   Clear